Turtle Lake, Louisiana
Current Conditions -  °F | °C
As of 6:55 AM on Saturday 25 Oct 2014 (Local Time) from KHEZ Reporting Station
Clear Clear  
Wind Chill: 46°   Ceiling: Unl
Heat Index: 46°   Visibility: 10mi
Dew Point: 43°   Wind: 0mph
Humidity: 87%   Direction: NA
Pressure: 30.15"   Gusts: NA
Location:  31.6488°N, 91.6098°W
Report Text: KHEZ 251155Z AUTO 00000KT 10SM CLR 08/06 A3015 RMK AO1 10090 20080 52007
Loading
Personal Weather Stations






























Interactive Weather Map
Tropical Storm Tracking
New forecast layout! Learn more

10-Day Weather Forecast

Advertisements
Track Severe Weather on mobile